Regional Weather Roundup
Issued by NWS

Home | Current Version | Previous Version | Graphics & Text | Print | Product List | Glossary On
Versions: 1 2 3 4 5 6 7 8 9 10 11 12 13 14 15 16 17 18 19 20 21 22 23 24 25 26 27 28 29 30 31 32 33 34 35 36 37 38 39 40 41 42 43 44 45 46 47 48 49 50
000
ASUS43 KIND 231459
RWRIN

WEATHER ROUNDUP FOR INDIANA
NATIONAL WEATHER SERVICE INDIANAPOLIS IN
1000 AM EST THU NOV 23 2017

NOTE: "FAIR" INDICATES FEW OR NO CLOUDS BELOW 12,000 FEET WITH NO
SIGNIFICANT WEATHER AND/OR OBSTRUCTIONS TO VISIBILITY.

* - STATION DOES NOT REPORT WEATHER SUCH AS PRECIPITATION OR FOG.

+ - STATION NOT QUALITY CONTROLLED BY THE NATIONAL WEATHER SERVICE.
    USE DATA WITH CAUTION...ESPECIALLY DEWPOINT AND RELATIVE
    HUMIDITY OBSERVATIONS.

INZ001>003-010>013-019-020-231600-
NORTHWEST INDIANA

CITY           SKY/WX    TMP DP  RH WIND       PRES   REMARKS
GARY /AIRPORT/ PTSUNNY   36  21  55 SW7       30.06F WCI  30
KNOX *+        CLOUDY    32  23  69 SW8       30.08S WCI  25
MICHIGAN CITY+ CLOUDY    34  23  64 S8        30.06F WCI  27
MONTICELLO +   CLOUDY    33  22  65 SW9       30.09S WCI  25
RENSSELAER +   PTSUNNY   34  21  60 S12       30.09S WCI  25

$$

LMZ046-743>745-231600-
SOUTHERN LAKE MICHIGAN

STATION/POSITION TIME  TEMP    WIND        PRES    WAVE
                       AIR SEA DIR/SP/G            HT
                 (UTC) (F)     (DEG/KT/KT) (MB)    (FT)
BURNS HARBOR     1440   34     190/ 11/ 15 1018.3F
MICHIGAN CITY    1430   33     180/ 10/ 12   N/A

$$

INZ004-005-014>016-021>024-231600-
NORTH CENTRAL INDIANA

CITY           SKY/WX    TMP DP  RH WIND       PRES   REMARKS
GOSHEN         CLOUDY    32  22  66 S10       30.08F WCI  24
PERU/GRISSOM   CLOUDY    34  27  75 SW9       30.09F WCI  26
SOUTH BEND     CLOUDY    32  23  69 S9        30.07F WCI  24

$$

INZ006>009-017-018-025>027-231600-
NORTHEAST INDIANA

CITY           SKY/WX    TMP DP  RH WIND       PRES   REMARKS
FORT WAYNE     CLOUDY    34  27  75 SW10      30.11F WCI  26
KENDALLVILLE + CLOUDY    31  26  81 SW7       30.08S WCI  24

$$

INZ028-029-035-036-043>045-051>053-231600-
WEST CENTRAL INDIANA

CITY           SKY/WX    TMP DP  RH WIND       PRES   REMARKS
CRAWFORDSVL +  CLOUDY    31  25  77 S8        30.10F WCI  24
GREENCASTLE +  CLOUDY    32  23  69 SW3       30.11F
LAFAYETTE      CLOUDY    33  24  69 SW5       30.10F WCI  29
TERRE HAUTE    CLOUDY    34  24  67 S7        30.13F WCI  28

$$

INZ030>032-037>040-046>048-054>057-064-065-231600-
CENTRAL INDIANA

CITY           SKY/WX    TMP DP  RH WIND       PRES   REMARKS
COLUMBUS       CLOUDY    32  25  74 CALM      30.14F
INDIANAPOLIS   CLOUDY    34  26  72 SW8       30.12F WCI  27
-EAGLE CREEK   CLOUDY    35  24  64 SW7       30.11F WCI  29
KOKOMO +       CLOUDY    34  25  69 SW8       30.10F WCI  27
MT COMFORT *+  CLOUDY    32  30  93 S7        30.12S WCI  26
SHELBYVILLE    CLOUDY    34  26  72 S8        30.13F WCI  27

$$

INZ033-034-041-042-049-050-058-059-231600-
EAST CENTRAL INDIANA

CITY           SKY/WX    TMP DP  RH WIND       PRES   REMARKS
MUNCIE         CLOUDY    36  26  67 S7        30.10F WCI  30
RICHMOND +     CLOUDY    32  28  86 SW8       30.13S WCI  25

$$

INZ060-061-067>069-081>083-085>088-231600-
SOUTHWEST INDIANA

CITY           SKY/WX    TMP DP  RH WIND       PRES   REMARKS
EVANSVILLE     SUNNY     34  28  79 SW3       30.17F
HUNTINGBURG +  SUNNY     34  31  88 S5        30.16F WCI  30

$$

INZ062-063-066-070>080-084-089>092-231600-
SOUTH CENTRAL AND SOUTHEAST INDIANA

CITY           SKY/WX    TMP DP  RH WIND       PRES   REMARKS
BLOOMINGTON    CLOUDY    34  25  69 SW5       30.12F WCI  30
MADISON *+     CLOUDY    34  28  80 S5        30.16F WCI  30
SEYMOUR +      CLOUDY    34  28  80 S3        30.15F

$$





USA.gov is the U.S. government's official web portal to all federal, state and local government web resources and services.